ESUT Weather Reports


time (UTC)temp
F
wind
direction
speed
knots
gust
knots
rain 1hr
in
rain 24hr
in
rain mn
in
humidity
%
barometer
mb
20260504140309 37 260 12.2 0.0 0.00 0.00 0.00 64 995.0
20260504130308 37 280 12.2 0.0 0.00 0.00 0.00 69 995.0
20260504120308 39 270 10.4 0.0 0.00 0.00 0.00 60 995.0
20260504110307 39 260 12.2 0.0 0.00 0.00 0.00 64 995.0
20260504100307 39 230 10.4 0.0 0.00 0.00 0.00 60 995.0
20260504080307 35 150 11.3 0.0 0.00 0.00 0.00 69 995.0
20260504070308 35 150 10.4 0.0 0.00 0.00 0.00 59 995.0
20260504050307 35 150 11.3 0.0 0.00 0.00 0.00 59 996.0
20260504043309 33 150 7.8 0.0 0.00 0.00 0.00 64 997.0
20260504040307 32 130 7.8 0.0 0.00 0.00 0.00 69 997.0
20260504033306 30 140 7.0 0.0 0.00 0.00 0.00 74 998.0
20260504030307 28 150 6.1 0.0 0.00 0.00 0.00 79 998.0
20260504023308 30 140 7.0 0.0 0.00 0.00 0.00 74 998.0
20260504020307 28 140 7.0 0.0 0.00 0.00 0.00 79 999.0
20260504013308 30 140 7.0 0.0 0.00 0.00 0.00 74 999.0
20260504010308 30 150 6.1 0.0 0.00 0.00 0.00 74 1000.0
20260504003307 32 150 8.7 0.0 0.00 0.00 0.00 69 1000.0
20260504000308 30 150 7.0 0.0 0.00 0.00 0.00 74 1000.0
20260503233306 30 150 4.3 0.0 0.00 0.00 0.00 74 1001.0
20260503230308 32 130 2.6 0.0 0.00 0.00 0.00 69 1001.0
20260503223308 32 150 5.2 0.0 0.00 0.00 0.00 74 1001.0
20260503220308 32 160 7.0 0.0 0.00 0.00 0.00 69 1002.0
20260503213306 32 160 5.2 0.0 0.00 0.00 0.00 69 1002.0
20260503210306 33 160 6.1 0.0 0.00 0.00 0.00 64 1002.0
20260503203306 33 160 6.1 0.0 0.00 0.00 0.00 64 1003.0
20260503200309 33 170 6.1 0.0 0.00 0.00 0.00 64 1003.0
20260503193308 33 140 6.1 0.0 0.00 0.00 0.00 64 1003.0
20260503190310 33 180 5.2 0.0 0.00 0.00 0.00 64 1003.0
20260503183309 33 190 7.0 0.0 0.00 0.00 0.00 64 1003.0
20260503180309 35 180 7.0 0.0 0.00 0.00 0.00 59 1003.0
20260503173308 35 180 7.8 0.0 0.00 0.00 0.00 59 1004.0
20260503170307 35 210 6.1 0.0 0.00 0.00 0.00 55 1004.0
20260503150307 35 220 7.8 0.0 0.00 0.00 0.00 55 1005.0